Overview Statistics Trail Chart Weather Telemetry Raw packets
 

This is the latest recevied weather packets stored in our database for station/object WX0ABE-13. If no packets are shown the sender has not sent any weather packets the latest 10 day(s).

<< 106 107 108 109 110 111 112 >>
Time Temp. Humidity Pressure Rain* Wind** Luminosity Snow
1787567576 19.44° C 72% 1016.6 hPa 0 mm - 0 W/m² -
1787567274 19.44° C 71% 1016.8 hPa 0 mm - 0 W/m² -
1787566974 20° C 70% 1016.6 hPa 0 mm - 0 W/m² -
1787566668 20.56° C 68% 1016.5 hPa 0 mm - 0 W/m² -
1787566060 20.56° C 65% 1016.6 hPa 0 mm - 0 W/m² -
1787565755 20.56° C 65% 1017 hPa 0 mm - 0 W/m² -
1787565450 20.56° C 65% 1016.6 hPa 0 mm - 0 W/m² -
1787565147 21.11° C 65% 1016.7 hPa 0 mm - 0 W/m² -
1787564844 21.11° C 64% 1016.8 hPa 0 mm - 0 W/m² -
1787564543 20.56° C 66% 1016.8 hPa 0 mm - 0 W/m² -
1787564238 20.56° C 66% 1016.8 hPa 0 mm - 0 W/m² -
1787563933 20.56° C 66% 1016.8 hPa 0 mm - 0 W/m² -
1787563630 21.11° C 66% 1016.6 hPa 0 mm - 0 W/m² -
1787563328 21.11° C 65% 1016.7 hPa 0 mm - 0 W/m² -
1787563024 21.11° C 65% 1016.6 hPa 0 mm - 0 W/m² -
1787562720 21.11° C 66% 1016.6 hPa 0 mm - 0 W/m² -
1787562417 21.11° C 65% 1016.7 hPa 0 mm - 0 W/m² -
1787562112 21.67° C 64% 1016.7 hPa 0 mm - 0 W/m² -
1787561505 21.11° C 65% 1016.8 hPa 0 mm - 0 W/m² -
1787561202 21.67° C 65% 1016.7 hPa 0 mm - 0 W/m² -
1787560896 21.67° C 65% 1016.6 hPa 0 mm - 0 W/m² -
1787560592 21.67° C 65% 1016.7 hPa 0 mm - 0 W/m² -
1787560288 21.67° C 63% 1017 hPa 0 mm - 0 W/m² -
1787559984 22.22° C 61% 1017.1 hPa 0 mm - 0 W/m² -
1787559679 22.22° C 60% 1017.1 hPa 0 mm - 0 W/m² -

* Rain latest hour (hover to see other rain measurements)
** Current wind speed in m/s (hover to see current wind gust speed)